Torna al catalogo

ONEWEB-0229

AttivoComunicazioniPO
NORAD 48779·PAYLOAD·🇬🇧 United Kingdom

Lanciato May 28, 2021 da Vostochny Cosmodrome

Loading…

Prossimi Passaggi (prossime 24 ore)

TLE

AggiornatoSource: CelesTrak SupGP

Epoca: Sep 14, 2026, 17:52 UTC

1 48779C 21045N   26257.74493473  .00001767  00000+0  46997-2 0  2574
2 48779  87.8983 241.3377 0002141  84.9911 330.0663 13.15541728    16

Traccia ONEWEB-0229 in tempo reale con AllMySat

Download on the App Store